Change the Weather History Date:

Monday, October 8, 2012

  Actual Average Record
Temperature  
Mean Temperature 66 °F 79 °F  
Max Temperature 69 °F 89 °F 99 °F (1945)
Min Temperature 62 °F 69 °F 45 °F (1952)
Degree Days  
Heating Degree Days 0 0  
Month to date heating degree days 0 0  
Since 1 July heating degree days 0 0  
Cooling Degree Days 1 14  
Month to date cooling degree days 108 116  
Year to date cooling degree days 4527 3915  
Growing Degree Days 16 (Base 50)    
Moisture  
Dew Point 50 °F    
Average Humidity 57    
Maximum Humidity 63    
Minimum Humidity 51    
Precipitation  
Precipitation 0.00 in 0.08 in 0.92 in (2007)
Month to date precipitation T 0.64  
Year to date precipitation 15.24 18.68  
Sea Level Pressure  
Sea Level Pressure 30.13 in    
Wind  
Wind Speed 9 mph (NNW)    
Max Wind Speed 18 mph    
Max Gust Speed 22 mph    
Visibility 10 miles    
Events      
T = Trace of Precipitation, MM = Missing Value Source: NWS Daily Summary

Daily Weather History Graph

Daily Weather History Graph

Search for Another Location

Airport or City:

Trip Planner

Search our weather history database for the weather conditions in past years. The results will help you decide how hot, cold, wet, or windy it might be!

Date:

Astronomy

Oct. 08, 2012 Rise Set
Actual Time 7:28 AM CDT 7:11 PM CDT
Civil Twilight 7:05 AM CDT 7:34 PM CDT
Nautical Twilight 6:38 AM CDT 8:01 PM CDT
Astronomical Twilight 6:12 AM CDT 8:28 PM CDT
Moon 12:46 AM CDT (10/8) 2:27 PM CDT (10/8)
Length of Visible Light 12h 28m
Length of Day
11h 42m
Last Quarter, 46% of the Moon is Illuminated
Oct 8
Last Quarter
Oct 15
New
Oct 21
First Quarter
Oct 29
Full
Nov 6
Last Quarter

Hourly Weather History & Observations

Time (CDT) Temp. Dew Point Humidity Pressure Visibility Wind Dir Wind Speed Gust Speed Precip Events Conditions
12:53 AM 66.0 °F 53.1 °F 63% 30.12 in 10.0 mi NNW 9.2 mph - N/A   Overcast
1:53 AM 66.0 °F 54.0 °F 65% 30.12 in 10.0 mi NNW 12.7 mph - N/A   Overcast
2:53 AM 64.9 °F 52.0 °F 63% 30.11 in 10.0 mi NNW 10.4 mph - N/A   Overcast
3:53 AM 64.9 °F 50.0 °F 58% 30.11 in 10.0 mi NNW 10.4 mph - N/A   Overcast
4:53 AM 64.9 °F 48.9 °F 56% 30.11 in 10.0 mi NNW 12.7 mph - N/A   Overcast
5:53 AM 64.0 °F 48.0 °F 56% 30.12 in 10.0 mi NNW 11.5 mph - N/A   Overcast
6:53 AM 64.0 °F 48.0 °F 56% 30.14 in 10.0 mi North 12.7 mph - N/A   Overcast
7:53 AM 63.0 °F 48.0 °F 58% 30.16 in 10.0 mi NNW 13.8 mph - N/A   Overcast
8:53 AM 63.0 °F 48.9 °F 60% 30.18 in 10.0 mi NNW 13.8 mph - N/A   Overcast
9:53 AM 63.0 °F 48.9 °F 60% 30.19 in 10.0 mi NNW 12.7 mph - N/A   Overcast
10:53 AM 64.0 °F 48.9 °F 58% 30.19 in 10.0 mi NNW 10.4 mph - N/A   Overcast
11:53 AM 64.0 °F 48.0 °F 56% 30.20 in 10.0 mi NNW 11.5 mph - N/A   Overcast
12:53 PM 64.9 °F 48.9 °F 56% 30.18 in 10.0 mi North 11.5 mph - N/A   Overcast
1:53 PM 66.0 °F 48.9 °F 54% 30.16 in 10.0 mi NNW 9.2 mph - N/A   Overcast
2:53 PM 68.0 °F 50.0 °F 52% 30.13 in 10.0 mi North 8.1 mph - N/A   Overcast
3:53 PM 68.0 °F 50.0 °F 52% 30.12 in 10.0 mi NW 6.9 mph - N/A   Overcast
4:53 PM 69.1 °F 50.0 °F 51% 30.09 in 10.0 mi NNW 8.1 mph - N/A   Overcast
5:53 PM 69.1 °F 50.0 °F 51% 30.09 in 10.0 mi NNW 3.5 mph - N/A   Overcast
6:53 PM 69.1 °F 50.0 °F 51% 30.09 in 10.0 mi NW 4.6 mph - N/A   Overcast
7:53 PM 69.1 °F 51.1 °F 53% 30.09 in 10.0 mi NNW 6.9 mph - N/A   Overcast
8:53 PM 69.8 °F 50.0 °F 49% 30.11 in 10.0 mi WNW 4.6 mph - N/A   Overcast
9:53 PM 69.1 °F 50.0 °F 51% 30.10 in 10.0 mi WNW 5.8 mph - N/A   Overcast
10:53 PM 68.0 °F 50.0 °F 52% 30.10 in 10.0 mi NW 6.9 mph - N/A   Overcast
11:53 PM 68.0 °F 52.0 °F 56% 30.10 in 10.0 mi Calm Calm - N/A   Overcast